Location: Myrnam
(53.6612°N, 111.2289°W)
Time: 15:22:49
(UTC+00:00)

SO-50 - Pass Details

Date: 06 December 2023
Orbit: 607 x 661 km, 64.6° (Epoch: 21 February)

Event Time Altitude Azimuth Distance (km) Brightness Sun altitude
Exits shadow 11:47:50 27° 39° (NE) 1,237 ? -30.9°
Drops below altitude 10° 11:50:00 10° 44° (NE) 2,046 ? -30.6°
Sets 11:52:18 0° 46° (NE) 2,949 ? -30.2°
